Location: Kopernik Observatory
(42.0014°N, 76.0372°W)
Time: 14:53:59
(UTC-04:00)

Daily predictions for brighter satellites

Satellite Brightness Start Highest point End
(mag) Time Altitude Azimuth Time Altitude Azimuth Time Altitude Azimuth
Cosmos 1544 4.2 19:08:33 10° SE 19:11:37 24° E 19:14:42 10° NE
Cosmos 2237 Rocket 4.2 19:07:11 10° WSW 19:12:07 30° NW 19:17:05 10° N
SAR-Lupe-4 3.9 19:09:02 10° SE 19:12:26 44° ENE 19:15:52 10° N
Resurs 01 Rocket 2.6 19:12:45 10° SE 19:16:30 27° ENE 19:20:16 10° N
COSMO-SKYMED 1 2.6 19:15:40 10° NNE 19:20:02 88° WNW 19:24:22 10° SSW
SL-8 R/B 3.7 19:16:07 10° SW 19:20:52 70° SSE 19:25:38 10° ENE
NOSS 3-2 (A) 4.1 19:15:19 10° SW 19:21:20 60° NW 19:27:57 10° NNE
MSX 4.2 19:15:46 10° S 19:21:30 70° WSW 19:27:15 10° NNW
SJ-6B 3.0 19:19:48 10° SSE 19:23:43 55° ENE 19:27:45 10° N
ALOS 3.6 19:21:18 10° ESE 19:24:44 21° ENE 19:28:09 10° NNE
Cosmos 1076 Rocket 3.5 19:21:10 10° N 19:25:32 90° ESE 19:29:53 10° S
Cosmos 1484 Rocket 3.2 19:22:47 10° S 19:26:37 69° WSW 19:30:34 10° NNW
Nadezhda 4 Rocket 4.3 19:20:48 10° N 19:26:46 45° ENE 19:32:39 10° SSE
Cosmos 1378 4.3 19:26:37 10° NNW 19:30:13 47° W 19:33:49 10° SSW
SL-19 R/B 4.4 19:24:37 10° SSE 19:30:18 89° ENE 19:36:25 10° NNW
ATLAS CENTAUR R/B 3.7 19:25:42 10° SW 19:30:37 89° NW 19:46:44 10° NE
ASTEX 1 4.4 19:27:00 10° NE 19:30:52 23° E 19:34:42 10° SE
IDEFIX/ARIANE 42P 4.5 19:28:51 10° SSW 19:33:36 35° W 19:38:24 10° NNW
SL-16 R/B 3.6 19:29:46 10° SW 19:35:08 42° WNW 19:40:33 10° NNE
Cosmos 1766 Rocket 3.6 19:31:59 10° N 19:36:22 84° W 19:40:41 10° S
Cosmos-2242 3.0 19:32:31 10° S 19:36:51 69° E 19:41:14 10° NNE
Meteor 1-29 4.0 19:34:14 10° NE 19:37:11 25° E 19:40:06 10° SSE
Cosmos 1092 Rocket 4.4 19:31:55 10° N 19:37:42 39° ENE 19:43:24 10° SE
FENGYUN 3A 4.5 19:33:22 10° SE 19:38:00 30° ENE 19:42:38 10° N
Cosmos 1758 3.4 19:37:10 10° S 19:41:15 90° WNW 19:45:24 10° N
CENTAUR R/B 2.7 19:38:16 10° S 19:43:59 48° ESE 19:50:23 10° NE
Cosmos 1452 Rocket 4.2 19:39:38 10° NNW 19:44:47 58° WSW 19:49:55 10° S
ISS -3.3 19:42:14 10° WSW 19:45:28 83° NW 19:48:06 15° NE
Meteor 1-21 Rocket 4.1 19:43:41 10° N 19:49:15 87° E 19:54:48 10° S
Abrixas 3.1 19:48:18 10° WSW 19:51:15 53° NNW 19:53:12 19° NE
NOAA 12 4.2 19:46:16 10° SSE 19:51:32 82° WSW 19:56:52 10° NNW
GPS 2-04 Rocket1 3.7 19:48:53 10° SW 19:51:52 27° S 19:53:27 19° SE
Meteor 1-28 Rocket 3.3 19:49:18 10° N 19:53:02 75° WNW 19:56:43 10° SSW
Cosmos 2251 Rocket 4.4 19:48:54 10° SSE 19:53:06 25° E 19:57:19 10° NE
Cosmos 1634 Rocket 4.4 19:49:19 10° SSE 19:55:02 39° E 20:00:43 10° NNE
CZ-2D R/B 4.1 19:57:19 25° E 19:58:27 29° ENE 20:01:51 10° N
Cosmos 1943 Rocket 3.2 19:56:06 10° N 20:00:53 28° NE 20:02:50 23° E
Cosmos 1420 Rocket 4.3 19:57:43 10° NNW 20:03:02 73° WSW 20:08:19 10° S
ERBS 3.8 20:02:24 10° NNW 20:05:19 24° NNE 20:05:53 23° NE
Cosmos 1346 4.2 20:03:21 10° NNW 20:06:14 45° W 20:09:04 10° S
H-2A R/B 3.3 20:06:03 31° ESE 20:06:56 36° ENE 20:10:30 10° N
Cosmos 1500 Rocket 3.5 20:03:27 10° N 20:07:55 74° E 20:12:22 10° SSE
Cosmos 1842 Rocket 3.4 20:05:39 10° S 20:09:58 76° E 20:14:20 10° NNE
Helios 1A 2.9 20:06:13 10° SSE 20:10:25 89° ESE 20:14:41 10° NNW
Cosmos 2369 Rocket 2.1 20:06:51 10° NNW 20:12:32 72° ENE 20:16:54 17° SSE
Cosmos 1943 3.1 20:08:56 10° SSW 20:14:32 72° ESE 20:20:09 10° NNE
FREGAT/IRIS 4.5 20:12:23 10° SSW 20:15:12 33° W 20:18:03 10° NNW
Spot 2 Rocket 3.7 20:11:38 10° S 20:16:40 72° WSW 20:21:43 10° NNW
AVUM R/B 3.8 20:15:54 10° SSW 20:17:52 37° S 20:17:52 37° S
Cosmos 1048 Rocket 4.5 20:16:58 10° SSW 20:22:12 63° WNW 20:27:25 10° NNE
Cosmos 1733 3.2 20:22:40 10° S 20:26:32 83° W 20:30:25 10° N
Cosmos 2263 4.2 20:20:53 10° NNW 20:26:41 68° ENE 20:29:26 31° SE
Cosmos 158 Rocket 3.7 20:22:40 10° SSW 20:27:33 89° E 20:32:28 10° NNE
Envisat 4.3 20:28:38 23° NE 20:28:38 23° NE 20:31:49 10° NNE
Gbstr 26 Del rocket 3.3 20:25:38 10° WSW 20:30:05 80° NNW 20:32:55 28° NE
USA 215 3.2 20:25:37 15° NE 20:31:04 66° SE 20:37:32 10° SW
Cosmos 1674 3.6 20:28:29 10° NNW 20:32:15 49° W 20:35:59 10° SSW
Cosmos 1174 4.2 20:28:17 10° SW 20:32:55 66° WNW 20:35:32 19° NNE
Helios 1B rocket 3.4 20:31:13 10° N 20:35:12 49° WNW 20:39:10 10° SSW
SL-24 R/B - RUBIN 2 4.4 20:29:54 10° NNW 20:36:36 71° NE 20:38:57 40° SE
Cosmos 1470 3.8 20:35:14 10° SSW 20:38:58 46° WNW 20:42:44 10° N
CZ-4B DEB 3.2 20:39:43 63° W 20:39:43 63° W 20:42:56 10° NNW
Cosmos 1627 Rocket 4.4 20:35:41 10° N 20:41:56 79° E 20:46:26 20° SSE
ATLAS 5 CENTAUR R/B 4.3 20:41:14 10° W 20:44:53 20° NW 20:48:45 10° NNE
Resurs 01 Rocket 3.6 20:49:03 10° SSW 20:52:54 28° W 20:56:45 10° NW
ERS-1 Rocket 3.7 20:56:03 39° NNE 20:56:03 39° NNE 20:59:41 10° N
Cosmos 2058 3.4 20:52:33 10° N 20:55:45 53° N 20:55:45 53° N
Meteor 1-16 Rocket 4.1 20:53:58 10° SSW 20:59:15 79° W 21:04:37 10° N
Cosmos 2180 Rocket 4.3 21:00:26 62° E 21:00:35 63° E 21:06:39 10° NNE
ALOS 3.3 20:58:30 16° SSW 21:01:51 43° W 21:06:19 10° NNW
Meteor 2-1 Rocket 4.1 20:58:09 18° S 21:02:37 82° E 21:08:33 10° NNE
SL-8 R/B 4.4 20:59:03 10° W 21:03:39 45° NNW 21:04:09 43° N
Cosmos 2151 4.2 21:06:27 10° NNW 21:10:25 40° W 21:11:12 36° WSW
Cosmos 2279 Rocket 3.9 21:09:23 20° S 21:13:56 86° W 21:20:11 10° N
GP-B 4.1 21:09:43 10° N 21:13:57 44° W 21:15:21 33° SW
Cosmos 2221 4.1 21:21:55 30° NNW 21:21:55 30° NNW 21:24:18 10° N
ISS -0.2 21:19:50 10° WNW 21:20:47 15° NW 21:20:47 15° NW
CENTAUR R/B 3.9 21:29:03 10° WSW 21:34:48 37° NW 21:41:15 10° NNE
Cosmos 1943 Rocket 3.0 21:39:29 10° NW 21:44:23 45° W 21:44:23 45° W
USA 215 4.1 22:13:01 42° N 22:13:53 44° NNW 22:19:59 10° W
